This is the latest recevied weather packets stored in our database for station/object N0TKN. If no packets are shown the sender has not sent any weather packets the latest 10 day(s).
| Time | Temp. | Humidity | Pressure | Rain* | Wind** | Luminosity | Snow |
|---|---|---|---|---|---|---|---|
| 1778058329 | 7.78° C | 99% | 1012.7 hPa | 0.25 mm | - | 0 W/m² | - |
| 1778057728 | 7.78° C | 99% | 1012.7 hPa | 0.51 mm | - | 0 W/m² | - |
| 1778057129 | 7.78° C | 99% | 1012.9 hPa | 1.27 mm | - | 0 W/m² | - |
| 1778056529 | 7.78° C | 99% | 1013.1 hPa | 1.78 mm | - | 0 W/m² | - |
| 1778055929 | 7.78° C | 99% | 1013.3 hPa | 2.03 mm | - | 0 W/m² | - |
| 1778055320 | 7.22° C | 99% | 1013.5 hPa | 2.03 mm | - | 0 W/m² | - |
| 1778054729 | 7.22° C | 99% | 1013.6 hPa | 1.78 mm | - | 0 W/m² | - |
| 1778054129 | 7.22° C | 99% | 1013.7 hPa | 1.52 mm | - | 0 W/m² | - |
| 1778053530 | 7.22° C | 99% | 1013.6 hPa | 0.76 mm | - | 0 W/m² | - |
| 1778052930 | 7.22° C | 99% | 1013.6 hPa | 0.25 mm | - | 0 W/m² | - |
| 1778052329 | 7.22° C | 99% | 1013.3 hPa | 0 mm | - | 0 W/m² | - |
| 1778051730 | 7.22° C | 99% | 1013.5 hPa | 0 mm | - | 0 W/m² | - |
| 1778051116 | 7.22° C | 99% | 1013.4 hPa | 0 mm | - | 0 W/m² | - |
| 1778050516 | 7.22° C | 99% | 1013.3 hPa | 0 mm | - | 0 W/m² | - |
| 1778049916 | 7.22° C | 99% | 1013.5 hPa | 0 mm | - | 0 W/m² | - |
| 1778049316 | 7.22° C | 99% | 1013.4 hPa | 0 mm | - | 0 W/m² | - |
| 1778048717 | 7.22° C | 99% | 1013.3 hPa | 0.76 mm | - | 0 W/m² | - |
| 1778048117 | 7.22° C | 99% | 1013.2 hPa | 0.76 mm | - | 0 W/m² | - |
| 1778047517 | 7.22° C | 99% | 1013.1 hPa | 0.76 mm | - | 0 W/m² | - |
| 1778046917 | 7.22° C | 99% | 1013.1 hPa | 0.76 mm | - | 0 W/m² | - |
| 1778046317 | 7.22° C | 99% | 1013.2 hPa | 0.76 mm | - | 0 W/m² | - |
| 1778045718 | 7.22° C | 99% | 1013 hPa | 0.76 mm | - | 0 W/m² | - |
| 1778045117 | 7.22° C | 99% | 1012.8 hPa | 0 mm | - | 0 W/m² | - |
| 1778044518 | 7.22° C | 99% | 1012.6 hPa | 0 mm | - | 0 W/m² | - |
| 1778043918 | 7.22° C | 99% | 1012.7 hPa | 0 mm | - | 0 W/m² | - |
* Rain latest hour (hover to see other rain measurements)
** Current wind speed in m/s (hover to see current wind gust speed)